INTELSAT 33E DEB, 64402

Orbit data source: Space-Track

INTELSAT 33E DEB, 64402 is space debris in GEO originally from a launch on Wed, 24 Aug 2016 UTC launched from the French Guiana (FRGUI). Debris objects in space refer to the collection of defunct objects orbiting the Earth. Examples of debris include non-operational satellites, rocket bodies, and fragments generated from explosions, collisions, or faulty payload assembly.

Not visible in the next 10 days
Identifier
64402, 2016-053AG
Orbit
GEO
Country
Flag of UnknownUnknown / ITSO
Related business
Manufacturer
Boeing/ES
Mission
Spacecraft
Bus & Motor
Unknown
Mass
Unknown
Launch date (UTC)
2016-08-24 (9 years ago)
Launch vehicle
Unknown
Launch site
French Guiana (FRGUI)
Object type
Payload
Rocket body
Debris
Shape & HBR
Unknown shape, 1.1 m
Radar Cross Section
RCS unknown

Expand to show TLE details & history
Last TLE update: 1 day ago

TLE from 1 day ago
0 INTELSAT 33E DEB
1 64402U 16053AG  25339.73788558 -.00000065  00000-0  00000-0 0  9996
2 64402   1.0115  74.0294 0126970 103.3202 256.5699  0.98353351  3965
Epoch: 2025-12-05T17:42Z
TLE epoch observation values (Epoch: 2025-12-05T17:42:33.314Z)
Latitude
Longitude
92.08854°
Altitude
36,465.939 km
Speed
3.045 km/s
True Right ascension
04h 50m 00s
True Declination
0° 00' 00"
Sunlit
Object was in daylight at epoch
Visualization orbit readout
Latitude
Unknown
Longitude
Unknown
Altitude
Unknown
Speed
Unknown
Apparent Right ascension
Unknown
Apparent Declination
Unknown
Sunlit
N/A
Visualization observer readout
Local Sidereal Time
01:05:28
Azimuth
Unknown
Elevation
Unknown
Doppler factor
Unknown
Orbital elements
Apogee altitude
36,876.5 km
Perigee altitude
35,791.863 km
Semi-major axis
42,712.319 km
Eccentricity
0.0127
Inclination
1.0115°
RAAN
74.0294°
Arg. of periapsis
103.3202°
True anomaly
255.16006°
Mean anomaly
256.5699°
Eccentric anomaly
255.86444°
Mean motion
0.24587 °/min
Orbital period
1,464.16 mins
BSTAR
0
Loading maneuver chart data...
Computing Atmospheric mass density...
Loading historical data...
Loading historical data...
Loading historical data...
Loading historical data...
Loading historical data...
Loading historical data...
Loading historical data...

Documentation

Showing up to 5 results
|